QPF
0.00 0.00 0.00 0.00 0.00 0.00 0.00 0.01 0.01 0.01 0.01 0.00 0.00 0.00 0.00 0.01 0.01 0.01 0.01 0.00 0.01 0.01 0.01 0.01 0.02 0.02 0.02 0.02 0.03 0.03 0.04 0.05 0.07 0.08 0.09 0.12 0.12 0.13
0.00 0.00 0.00 0.00 0.00 0.00 0.00 0.00 0.01 0.01 0.01 0.00 0.00 0.00 0.01 0.01 0.01 0.01 0.01 0.01 0.01 0.01 0.01 0.01 0.01 0.02 0.02 0.02 0.02 0.03 0.04 0.06 0.06 0.07 0.08 0.10 0.10 0.09
0.00 0.00 0.00 0.00 0.00 0.00 0.00 0.00 0.01 0.01 0.01 0.01 0.00 0.00 0.00 0.01 0.01 0.01 0.01 0.01 0.01 0.01 0.01 0.01 0.01 0.02 0.02 0.02 0.02 0.03 0.04 0.06 0.06 0.07 0.08 0.08 0.07 0.07
0.00 0.00 0.00 0.00 0.00 0.00 0.00 0.00 0.00 0.01 0.01 0.01 0.00 0.00 0.00 0.01 0.01 0.01 0.01 0.01 0.01 0.01 0.01 0.01 0.01 0.01 0.02 0.02 0.03 0.02 0.05 0.06 0.05 0.06 0.07 0.07 0.05 0.05
0.00 0.00 0.00 0.00 0.00 0.00 0.00 0.00 0.01 0.01 0.01 0.01 0.01 0.01 0.01 0.00 0.00 0.00 0.01 0.01 0.01 0.01 0.01 0.01 0.02 0.02 0.02 0.03 0.04 0.03 0.06 0.05 0.05 0.06 0.06 0.05 0.04 0.05
0.00 0.00 0.00 0.00 0.00 0.00 0.00 0.01 0.01 0.01 0.01 0.01 0.01 0.01 0.00 0.00 0.00 0.01 0.01 0.01 0.01 0.01 0.01 0.01 0.02 0.01 0.02 0.05 0.05 0.04 0.05 0.04 0.05 0.05 0.05 0.03 0.03 0.03
0.00 0.00 0.00 0.00 0.00 0.01 0.01 0.01 0.01 0.02 0.02 0.02 0.02 0.01 0.01 0.00 0.01 0.01 0.02 0.03 0.02 0.01 0.01 0.01 0.01 0.01 0.02 0.06 0.05 0.06 0.05 0.04 0.05 0.04 0.04 0.03 0.02 0.03
0.00 0.00 0.00 0.00 0.00 0.01 0.01 0.01 0.01 0.02 0.03 0.03 0.02 0.02 0.01 0.01 0.01 0.02 0.03 0.03 0.02 0.01 0.01 0.02 0.02 0.03 0.05 0.08 0.07 0.06 0.04 0.04 0.04 0.04 0.04 0.03 0.03 0.03
0.00 0.00 0.00 0.00 0.00 0.00 0.01 0.01 0.01 0.01 0.02 0.03 0.03 0.02 0.02 0.02 0.03 0.03 0.03 0.03 0.03 0.01 0.02 0.02 0.02 0.03 0.06 0.08 0.07 0.06 0.04 0.03 0.03 0.04 0.05 0.04 0.03 0.03
0.01 0.00 0.00 0.00 0.00 0.00 0.00 0.01 0.00 0.00 0.01 0.01 0.02 0.02 0.02 0.03 0.04 0.04 0.03 0.02 0.02 0.01 0.02 0.02 0.02 0.04 0.06 0.06 0.05 0.04 0.03 0.03 0.03 0.03 0.04 0.04 0.03 0.03
0.01 0.01 0.01 0.00 0.01 0.01 0.01 0.01 0.00 0.00 0.00 0.01 0.01 0.02 0.02 0.03 0.04 0.04 0.03 0.03 0.02 0.01 0.01 0.02 0.02 0.02 0.03 0.03 0.04 0.03 0.03 0.03 0.03 0.03 0.03 0.03 0.03 0.04
0.01 0.01 0.01 0.01 0.01 0.01 0.01 0.01 0.01 0.01 0.01 0.01 0.01 0.01 0.01 0.01 0.02 0.03 0.04 0.04 0.03 0.03 0.02 0.02 0.02 0.02 0.03 0.02 0.03 0.03 0.02 0.02 0.02 0.02 0.02 0.02 0.03 0.02
0.01 0.01 0.01 0.01 0.01 0.01 0.01 0.01 0.01 0.01 0.01 0.01 0.01 0.01 0.01 0.01 0.02 0.02 0.04 0.04 0.04 0.04 0.03 0.04 0.03 0.03 0.03 0.03 0.03 0.03 0.03 0.02 0.02 0.02 0.02 0.02 0.02 0.02
0.01 0.01 0.01 0.01 0.01 0.01 0.01 0.01 0.01 0.01 0.01 0.01 0.01 0.01 0.01 0.01 0.01 0.02 0.03 0.03 0.04 0.05 0.04 0.05 0.05 0.05 0.05 0.04 0.04 0.03 0.03 0.02 0.02 0.02 0.01 0.01 0.02 0.02
0.01 0.01 0.01 0.01 0.01 0.01 0.01 0.01 0.01 0.01 0.01 0.01 0.01 0.01 0.01 0.01 0.01 0.01 0.02 0.02 0.03 0.04 0.04 0.04 0.05 0.05 0.05 0.05 0.04 0.03 0.02 0.02 0.01 0.01 0.02 0.02 0.02 0.02
0.01 0.01 0.00 0.00 0.00 0.00 0.00 0.00 0.01 0.01 0.01 0.01 0.01 0.01 0.01 0.01 0.01 0.01 0.02 0.03 0.03 0.03 0.03 0.03 0.03 0.03 0.03 0.03 0.03 0.02 0.02 0.02 0.02 0.02 0.02 0.03 0.03 0.03
0.01 0.00 0.00 0.00 0.00 0.00 0.00 0.00 0.01 0.01 0.01 0.01 0.02 0.01 0.01 0.01 0.01 0.01 0.02 0.03 0.04 0.03 0.03 0.02 0.02 0.01 0.01 0.02 0.02 0.02 0.02 0.01 0.02 0.02 0.02 0.03 0.04 0.04
0.01 0.01 0.00 0.00 0.00 0.00 0.01 0.01 0.01 0.01 0.02 0.03 0.03 0.03 0.02 0.02 0.02 0.02 0.03 0.03 0.03 0.03 0.03 0.02 0.01 0.01 0.01 0.01 0.01 0.02 0.02 0.02 0.02 0.02 0.03 0.04 0.05 0.05
0.01 0.01 0.01 0.00 0.00 0.01 0.01 0.01 0.02 0.02 0.02 0.02 0.02 0.02 0.03 0.03 0.03 0.03 0.03 0.03 0.03 0.03 0.02 0.02 0.02 0.02 0.02 0.02 0.02 0.02 0.03 0.02 0.02 0.02 0.03 0.04 0.05 0.05
0.01 0.01 0.01 0.01 0.01 0.02 0.02 0.02 0.02 0.02 0.03 0.03 0.04 0.04 0.04 0.04 0.04 0.04 0.04 0.04 0.03 0.02 0.02 0.02 0.02 0.02 0.03 0.03 0.03 0.03 0.03 0.02 0.02 0.03 0.03 0.03 0.03 0.03
0.01 0.01 0.01 0.01 0.02 0.03 0.03 0.03 0.04 0.04 0.05 0.05 0.05 0.04 0.04 0.04 0.05 0.04 0.04 0.04 0.03 0.03 0.03 0.03 0.02 0.03 0.03 0.03 0.03 0.03 0.03 0.02 0.02 0.04 0.04 0.03 0.02 0.02
0.01 0.01 0.01 0.01 0.02 0.02 0.02 0.03 0.03 0.05 0.06 0.06 0.05 0.05 0.05 0.05 0.04 0.04 0.04 0.03 0.03 0.03 0.03 0.03 0.02 0.02 0.02 0.03 0.03 0.03 0.03 0.03 0.03 0.03 0.03 0.03 0.03 0.04
0.01 0.01 0.01 0.01 0.01 0.02 0.02 0.02 0.03 0.04 0.05 0.05 0.04 0.03 0.03 0.03 0.03 0.03 0.03 0.03 0.03 0.02 0.02 0.02 0.02 0.02 0.02 0.03 0.03 0.03 0.03 0.03 0.03 0.03 0.03 0.02 0.02 0.03
MSLP
1022.04 1022.44 1022.82 1023.21 1023.59 1023.99 1024.39 1024.77 1025.14 1025.47 1025.73 1025.92 1026.01 1025.98 1025.85 1025.61 1025.27 1024.86 1024.38 1023.86 1023.30 1022.71 1022.07 1021.39 1020.65 1019.84 1018.95 1018.00 1016.98 1015.90 1014.77 1013.59 1012.34 1011.00 1009.56 1007.98 1006.25 1004.37
1021.65 1022.11 1022.55 1022.98 1023.42 1023.85 1024.28 1024.71 1025.10 1025.46 1025.74 1025.94 1026.04 1026.02 1025.88 1025.64 1025.30 1024.89 1024.42 1023.91 1023.36 1022.79 1022.18 1021.52 1020.82 1020.04 1019.20 1018.28 1017.29 1016.25 1015.14 1013.97 1012.73 1011.41 1009.96 1008.39 1006.66 1004.80
1021.15 1021.69 1022.20 1022.70 1023.19 1023.69 1024.17 1024.64 1025.08 1025.47 1025.79 1026.01 1026.12 1026.11 1025.99 1025.75 1025.41 1025.00 1024.54 1024.03 1023.49 1022.93 1022.33 1021.70 1021.02 1020.27 1019.46 1018.57 1017.62 1016.60 1015.52 1014.38 1013.16 1011.86 1010.45 1008.90 1007.22 1005.41
1020.54 1021.14 1021.73 1022.31 1022.88 1023.45 1024.01 1024.54 1025.04 1025.47 1025.83 1026.09 1026.24 1026.26 1026.15 1025.93 1025.62 1025.22 1024.76 1024.26 1023.72 1023.16 1022.57 1021.95 1021.28 1020.55 1019.75 1018.89 1017.96 1016.98 1015.93 1014.82 1013.64 1012.37 1011.01 1009.53 1007.93 1006.20
1019.81 1020.49 1021.16 1021.82 1022.48 1023.12 1023.75 1024.36 1024.92 1025.42 1025.84 1026.16 1026.35 1026.42 1026.36 1026.18 1025.90 1025.52 1025.08 1024.59 1024.07 1023.51 1022.92 1022.29 1021.62 1020.89 1020.11 1019.27 1018.36 1017.40 1016.37 1015.30 1014.16 1012.95 1011.65 1010.25 1008.75 1007.15
1019.03 1019.77 1020.50 1021.23 1021.96 1022.69 1023.40 1024.08 1024.71 1025.28 1025.77 1026.16 1026.43 1026.56 1026.57 1026.46 1026.23 1025.90 1025.50 1025.03 1024.52 1023.96 1023.36 1022.73 1022.05 1021.33 1020.54 1019.71 1018.81 1017.87 1016.88 1015.83 1014.73 1013.58 1012.36 1011.06 1009.67 1008.21
1018.23 1019.01 1019.79 1020.58 1021.38 1022.17 1022.95 1023.69 1024.40 1025.04 1025.60 1026.07 1026.42 1026.65 1026.75 1026.72 1026.57 1026.31 1025.97 1025.54 1025.05 1024.50 1023.90 1023.26 1022.58 1021.84 1021.06 1020.22 1019.34 1018.41 1017.44 1016.42 1015.37 1014.27 1013.12 1011.91 1010.65 1009.32
1017.47 1018.27 1019.08 1019.91 1020.75 1021.59 1022.42 1023.22 1023.98 1024.69 1025.32 1025.87 1026.32 1026.65 1026.85 1026.93 1026.88 1026.71 1026.44 1026.07 1025.62 1025.09 1024.51 1023.86 1023.17 1022.43 1021.64 1020.81 1019.93 1019.02 1018.06 1017.08 1016.06 1015.01 1013.92 1012.80 1011.65 1010.46
1016.76 1017.57 1018.40 1019.25 1020.12 1020.99 1021.85 1022.69 1023.49 1024.25 1024.95 1025.58 1026.12 1026.55 1026.87 1027.06 1027.13 1027.07 1026.89 1026.59 1026.19 1025.70 1025.13 1024.50 1023.81 1023.07 1022.28 1021.46 1020.59 1019.69 1018.76 1017.80 1016.81 1015.80 1014.78 1013.73 1012.67 1011.60
1016.13 1016.93 1017.77 1018.64 1019.52 1020.40 1021.28 1022.14 1022.97 1023.77 1024.52 1025.22 1025.84 1026.37 1026.80 1027.12 1027.30 1027.35 1027.27 1027.06 1026.72 1026.28 1025.74 1025.13 1024.45 1023.72 1022.95 1022.14 1021.29 1020.42 1019.52 1018.59 1017.64 1016.67 1015.69 1014.71 1013.72 1012.74
1015.55 1016.36 1017.21 1018.09 1018.98 1019.87 1020.76 1021.63 1022.48 1023.30 1024.09 1024.84 1025.53 1026.15 1026.68 1027.10 1027.40 1027.56 1027.57 1027.44 1027.18 1026.79 1026.29 1025.71 1025.06 1024.35 1023.61 1022.83 1022.02 1021.19 1020.33 1019.44 1018.54 1017.61 1016.68 1015.75 1014.82 1013.91
1015.03 1015.85 1016.71 1017.60 1018.50 1019.41 1020.30 1021.18 1022.04 1022.88 1023.70 1024.48 1025.23 1025.92 1026.53 1027.04 1027.43 1027.68 1027.78 1027.73 1027.53 1027.20 1026.75 1026.21 1025.59 1024.93 1024.23 1023.50 1022.75 1021.97 1021.17 1020.35 1019.50 1018.63 1017.75 1016.87 1016.00 1015.15
1014.55 1015.39 1016.27 1017.18 1018.11 1019.03 1019.94 1020.83 1021.69 1022.54 1023.37 1024.19 1024.97 1025.70 1026.37 1026.95 1027.41 1027.73 1027.91 1027.92 1027.78 1027.49 1027.09 1026.59 1026.03 1025.41 1024.77 1024.11 1023.43 1022.74 1022.02 1021.28 1020.51 1019.71 1018.89 1018.07 1017.24 1016.44
1014.13 1014.99 1015.90 1016.84 1017.79 1018.73 1019.66 1020.56 1021.43 1022.29 1023.13 1023.96 1024.76 1025.52 1026.22 1026.84 1027.35 1027.72 1027.94 1028.01 1027.91 1027.67 1027.31 1026.86 1026.35 1025.79 1025.22 1024.64 1024.05 1023.45 1022.83 1022.19 1021.51 1020.80 1020.07 1019.30 1018.54 1017.78
1013.79 1014.66 1015.60 1016.57 1017.54 1018.51 1019.45 1020.36 1021.24 1022.10 1022.95 1023.78 1024.59 1025.36 1026.08 1026.72 1027.26 1027.66 1027.91 1028.00 1027.93 1027.73 1027.41 1027.01 1026.55 1026.06 1025.56 1025.06 1024.57 1024.08 1023.57 1023.04 1022.47 1021.87 1021.22 1020.54 1019.83 1019.13
1013.56 1014.44 1015.38 1016.37 1017.36 1018.33 1019.29 1020.20 1021.09 1021.95 1022.80 1023.63 1024.44 1025.21 1025.94 1026.58 1027.13 1027.54 1027.81 1027.92 1027.88 1027.70 1027.42 1027.06 1026.65 1026.22 1025.80 1025.39 1024.99 1024.61 1024.21 1023.80 1023.34 1022.84 1022.30 1021.70 1021.07 1020.42
1013.46 1014.33 1015.26 1016.23 1017.22 1018.19 1019.14 1020.06 1020.94 1021.80 1022.64 1023.47 1024.27 1025.05 1025.77 1026.42 1026.96 1027.38 1027.66 1027.79 1027.77 1027.62 1027.37 1027.05 1026.69 1026.32 1025.97 1025.64 1025.33 1025.04 1024.75 1024.44 1024.10 1023.70 1023.26 1022.75 1022.20 1021.61
1013.50 1014.32 1015.22 1016.16 1017.11 1018.06 1018.99 1019.88 1020.75 1021.60 1022.44 1023.26 1024.06 1024.84 1025.56 1026.21 1026.76 1027.19 1027.48 1027.63 1027.64 1027.52 1027.30 1027.02 1026.71 1026.40 1026.10 1025.83 1025.60 1025.39 1025.19 1024.97 1024.72 1024.43 1024.07 1023.65 1023.17 1022.65
1013.64 1014.41 1015.24 1016.12 1017.02 1017.91 1018.79 1019.66 1020.51 1021.34 1022.17 1022.99 1023.79 1024.57 1025.30 1025.96 1026.53 1026.98 1027.29 1027.47 1027.50 1027.42 1027.24 1027.01 1026.74 1026.47 1026.23 1026.02 1025.84 1025.70 1025.56 1025.42 1025.25 1025.03 1024.75 1024.41 1024.00 1023.55
1013.85 1014.54 1015.29 1016.09 1016.91 1017.74 1018.56 1019.38 1020.20 1021.01 1021.83 1022.65 1023.46 1024.25 1024.99 1025.68 1026.27 1026.75 1027.09 1027.31 1027.38 1027.35 1027.22 1027.03 1026.81 1026.58 1026.38 1026.21 1026.08 1025.98 1025.90 1025.81 1025.70 1025.54 1025.34 1025.06 1024.72 1024.33
1014.07 1014.67 1015.34 1016.04 1016.77 1017.52 1018.28 1019.05 1019.83 1020.62 1021.43 1022.25 1023.07 1023.88 1024.65 1025.35 1025.98 1026.49 1026.88 1027.15 1027.27 1027.29 1027.21 1027.07 1026.90 1026.72 1026.56 1026.43 1026.34 1026.27 1026.22 1026.18 1026.11 1026.01 1025.86 1025.64 1025.37 1025.04
1014.24 1014.77 1015.34 1015.96 1016.60 1017.27 1017.96 1018.68 1019.42 1020.19 1020.99 1021.81 1022.64 1023.47 1024.26 1025.00 1025.66 1026.22 1026.66 1026.97 1027.15 1027.23 1027.21 1027.12 1027.00 1026.87 1026.75 1026.65 1026.59 1026.56 1026.54 1026.53 1026.51 1026.46 1026.36 1026.20 1025.99 1025.72
1014.34 1014.80 1015.30 1015.83 1016.40 1016.99 1017.63 1018.29 1019.00 1019.74 1020.53 1021.35 1022.19 1023.03 1023.84 1024.61 1025.30 1025.90 1026.39 1026.75 1026.99 1027.12 1027.16 1027.13 1027.06 1026.98 1026.90 1026.85 1026.82 1026.82 1026.84 1026.87 1026.89 1026.89 1026.85 1026.75 1026.60 1026.40
Thickness
5537 5533 5530 5526 5522 5518 5513 5508 5502 5503 5508 5507 5503 5501 5496 5494 5492 5491 5489 5488 5486 5484 5482 5480 5478 5476 5474 5472 5472 5471 5471 5471 5471 5472 5472 5474 5476 5479
5528 5524 5521 5517 5513 5508 5504 5499 5493 5489 5492 5495 5492 5489 5487 5484 5483 5481 5480 5479 5478 5476 5474 5472 5470 5468 5465 5464 5463 5462 5462 5463 5463 5464 5465 5467 5469 5472
5519 5515 5512 5508 5504 5499 5494 5489 5484 5480 5480 5484 5482 5480 5477 5476 5475 5473 5472 5471 5470 5468 5466 5464 5462 5460 5457 5456 5455 5454 5455 5455 5456 5457 5459 5461 5462 5465
5510 5506 5502 5499 5494 5489 5484 5480 5475 5471 5469 5471 5472 5470 5469 5467 5465 5464 5464 5462 5461 5461 5458 5456 5454 5452 5450 5448 5447 5447 5448 5449 5449 5451 5452 5454 5456 5459
5501 5497 5493 5489 5484 5479 5475 5470 5467 5464 5461 5459 5462 5461 5460 5458 5457 5456 5455 5454 5453 5452 5451 5449 5447 5445 5443 5441 5441 5441 5442 5442 5443 5444 5446 5448 5450 5452
5492 5488 5484 5479 5475 5470 5466 5462 5459 5456 5453 5451 5451 5451 5450 5448 5446 5446 5448 5447 5446 5444 5442 5441 5439 5437 5435 5435 5435 5435 5435 5436 5437 5438 5440 5442 5444 5447
5483 5478 5474 5470 5466 5461 5458 5454 5450 5447 5444 5442 5441 5441 5440 5438 5436 5435 5435 5437 5438 5435 5434 5433 5432 5431 5429 5428 5428 5428 5429 5430 5431 5433 5435 5437 5439 5441
5473 5469 5465 5461 5457 5453 5450 5446 5442 5439 5436 5433 5431 5429 5429 5427 5426 5425 5423 5425 5428 5427 5424 5425 5424 5423 5422 5422 5422 5422 5424 5425 5426 5427 5429 5431 5433 5435
5464 5460 5456 5453 5449 5445 5442 5439 5435 5431 5428 5424 5422 5420 5419 5418 5416 5416 5414 5413 5413 5415 5414 5416 5416 5415 5416 5416 5416 5416 5417 5418 5420 5421 5423 5425 5427 5429
5454 5451 5447 5444 5440 5437 5435 5432 5428 5425 5422 5419 5416 5414 5412 5410 5408 5406 5405 5405 5406 5406 5403 5405 5408 5408 5410 5410 5410 5410 5411 5412 5413 5415 5418 5420 5422 5424
5445 5442 5438 5435 5432 5430 5427 5425 5422 5420 5417 5413 5411 5408 5406 5404 5401 5399 5398 5397 5399 5399 5396 5395 5398 5400 5403 5404 5404 5404 5405 5405 5407 5409 5411 5414 5415 5417
5437 5433 5430 5426 5424 5422 5419 5416 5415 5413 5411 5409 5406 5403 5400 5397 5395 5392 5390 5389 5388 5390 5390 5388 5390 5391 5395 5399 5399 5398 5399 5400 5402 5404 5406 5407 5409 5411
5427 5424 5421 5419 5417 5415 5412 5409 5407 5405 5403 5400 5398 5395 5393 5391 5389 5387 5385 5383 5382 5382 5383 5382 5383 5383 5383 5388 5393 5393 5394 5395 5396 5398 5400 5402 5404 5406
5417 5415 5413 5411 5409 5407 5405 5403 5401 5398 5395 5393 5390 5388 5386 5385 5384 5382 5381 5380 5379 5378 5378 5377 5377 5378 5379 5381 5384 5388 5390 5391 5392 5394 5396 5398 5399 5401
5407 5406 5404 5403 5401 5399 5397 5396 5393 5390 5388 5385 5383 5382 5380 5379 5378 5378 5378 5378 5378 5377 5376 5375 5374 5375 5374 5375 5378 5381 5384 5387 5388 5389 5391 5393 5395 5397
5399 5397 5396 5395 5393 5391 5390 5387 5385 5383 5381 5379 5377 5376 5375 5374 5373 5373 5373 5374 5374 5375 5375 5374 5373 5372 5372 5373 5374 5377 5379 5380 5384 5386 5387 5390 5392 5394
5390 5388 5387 5386 5384 5383 5381 5380 5378 5376 5375 5373 5372 5371 5371 5369 5369 5369 5369 5369 5369 5370 5371 5371 5371 5370 5370 5370 5372 5374 5376 5378 5380 5382 5385 5388 5390 5392
5381 5378 5377 5376 5375 5374 5373 5373 5371 5370 5369 5368 5367 5366 5366 5365 5365 5365 5365 5364 5365 5365 5366 5366 5367 5368 5369 5371 5371 5372 5374 5376 5378 5380 5382 5385 5388 5390
5371 5369 5368 5368 5367 5367 5366 5366 5365 5364 5364 5363 5363 5362 5361 5361 5361 5361 5361 5361 5361 5361 5362 5362 5362 5363 5365 5368 5370 5371 5371 5374 5376 5378 5380 5383 5386 5388
5362 5361 5360 5360 5360 5360 5360 5360 5360 5359 5359 5359 5358 5358 5357 5357 5357 5357 5357 5357 5357 5358 5359 5360 5359 5360 5362 5364 5366 5369 5370 5372 5374 5377 5380 5382 5385 5387
5353 5353 5353 5353 5354 5354 5354 5354 5354 5354 5354 5354 5354 5354 5353 5354 5354 5354 5353 5354 5354 5355 5356 5358 5358 5359 5361 5363 5365 5368 5370 5372 5374 5375 5378 5381 5384 5387
5345 5346 5347 5347 5348 5348 5349 5349 5350 5350 5350 5350 5350 5350 5351 5351 5351 5350 5351 5351 5352 5353 5354 5356 5358 5359 5360 5362 5364 5366 5368 5371 5374 5376 5378 5381 5382 5385
5338 5339 5340 5341 5342 5343 5344 5345 5345 5346 5346 5346 5347 5347 5348 5348 5348 5348 5349 5350 5351 5352 5353 5355 5356 5358 5359 5361 5363 5365 5367 5370 5373 5376 5378 5381 5383 5386